Theta_e
305 304 301 302 298 298 299 300 305 303 305 304 293 289 289 289 288 287 287 287 286 285 284 283 283 282 281 280 280 279 279 278 279 279 277 276 276 274 274 274 274 273 272
301 299 300 299 298 299 304 308 304 304 302 292 290 289 289 288 287 287 286 286 285 285 284 283 282 281 280 280 279 279 278 278 277 276 276 275 275 274 274 273 273 273 272
300 300 300 302 304 307 306 303 303 300 293 290 289 288 288 287 287 286 286 286 285 284 284 283 282 281 280 280 279 279 278 278 277 276 275 275 274 273 273 272 272 272 271
302 303 304 304 305 305 303 300 298 292 291 289 288 288 287 287 287 286 286 285 284 284 283 283 282 282 281 280 279 279 278 278 277 275 275 274 273 273 272 271 271 271 270
300 301 302 303 303 302 299 295 292 290 289 288 288 287 287 287 286 286 285 285 284 283 283 283 282 281 281 280 279 279 278 277 276 275 274 273 273 272 271 270 270 269 269
301 301 302 302 301 296 292 291 290 289 289 287 287 287 287 287 286 286 285 285 284 284 283 282 282 281 280 280 280 279 278 277 276 275 274 273 273 271 270 270 269 269 268
301 302 302 300 295 293 292 291 290 289 288 287 286 286 286 286 285 285 284 284 284 283 283 282 281 281 280 280 280 279 279 278 276 275 273 273 272 271 270 269 269 267 266
302 301 299 296 294 293 292 291 290 289 288 287 287 286 285 285 284 284 283 284 284 283 282 281 281 281 280 280 279 278 277 277 276 274 273 272 271 270 269 268 267 265 266
302 300 299 297 294 292 292 292 290 289 289 288 287 286 285 286 285 284 283 284 284 283 283 282 281 280 280 279 279 278 277 277 275 274 272 271 271 269 269 267 266 264 263
300 299 297 295 294 294 294 292 291 290 289 288 287 287 286 285 285 283 282 283 283 283 282 282 281 280 280 279 279 279 277 277 276 274 272 271 270 268 267 266 264 263 261
299 297 296 296 296 294 294 292 290 289 288 288 287 287 286 285 284 283 282 282 282 282 281 281 281 281 280 280 280 279 278 277 275 273 271 270 268 267 266 265 264 263 261
294 294 294 294 293 292 292 291 289 288 286 286 285 285 286 286 286 285 283 282 282 282 281 281 281 280 280 280 280 279 278 276 274 272 270 269 267 266 265 265 264 264 263
292 292 291 291 290 289 289 288 287 287 285 285 284 283 285 287 287 286 283 283 282 282 282 281 281 280 280 280 280 280 277 276 273 271 269 268 267 265 264 264 264 263 264
290 290 290 290 289 289 288 287 286 287 286 284 283 281 282 283 284 284 283 282 281 281 281 281 281 280 279 279 279 279 276 274 273 270 268 266 265 264 263 262 262 261 261
288 288 288 287 287 287 287 286 285 286 284 283 283 282 280 280 281 280 280 280 279 279 278 278 280 280 280 278 277 277 275 272 271 268 266 265 264 263 262 262 261 260 259
283 283 282 282 282 282 282 283 284 283 283 282 282 282 282 282 282 282 281 281 281 281 280 278 277 278 276 275 274 274 272 271 269 267 265 264 263 262 261 261 260 259 258
279 279 280 280 280 279 279 278 278 283 280 281 281 281 281 282 282 282 283 283 283 282 282 280 276 276 275 274 272 272 270 271 268 266 265 264 263 262 261 260 259 258 259
278 277 277 277 277 277 277 277 276 275 275 278 280 277 277 278 279 279 280 281 282 284 283 281 278 276 274 273 272 272 272 269 266 265 264 263 263 261 260 259 258 258 257
277 276 276 276 277 276 276 275 275 274 273 273 274 276 277 275 275 276 277 277 279 280 282 281 280 277 275 274 273 272 271 268 266 265 263 263 262 260 259 259 258 257 257
275 275 275 275 274 274 273 272 271 271 271 271 272 272 273 273 273 274 274 274 275 275 277 280 279 277 275 274 272 271 269 266 265 264 263 262 261 259 259 258 258 257 257
272 272 272 271 270 270 269 269 269 269 269 269 270 270 272 273 272 273 273 273 273 273 274 275 275 275 273 271 271 270 268 266 265 264 263 261 260 260 259 258 257 257 257
269 269 269 268 268 268 267 267 267 267 267 267 268 268 269 268 269 269 269 269 270 271 271 272 273 272 272 271 270 268 267 265 265 264 262 261 260 259 259 258 257 257 257
268 267 267 267 266 265 265 265 265 265 265 265 266 266 266 266 267 267 267 267 267 268 268 268 269 269 268 267 268 268 267 266 265 264 263 261 261 260 259 258 258 257 258
266 265 265 264 264 264 263 263 263 263 264 264 264 265 265 265 265 265 265 265 265 266 266 266 267 267 267 267 266 266 266 265 264 263 263 262 261 260 260 259 258 258 259
265 264 263 262 262 261 261 262 262 262 262 262 263 263 263 264 264 264 264 264 265 265 265 265 265 266 266 266 266 265 264 264 264 263 262 262 262 261 260 260 259 259 259
263 263 262 261 261 261 261 261 261 261 261 262 262 262 262 263 263 263 263 264 264 263 263 264 264 265 265 264 264 264 263 263 263 263 263 262 262 262 261 261 260 260 259
Wind_Speed
29 29 29 33 33 32 26 22 19 18 12 11 12 14 13 13 12 11 11 9 9 9 9 8 7 7 6 4 4 4 4 4 5 8 15 17 17 20 22 24 24 23 26
26 29 34 29 27 25 24 21 20 13 11 14 15 16 15 14 13 13 12 11 11 12 11 11 11 9 8 8 7 6 6 6 6 9 16 15 18 19 20 26 27 26 27
29 30 32 31 28 24 20 18 15 14 15 15 17 17 15 14 13 14 13 13 13 14 14 14 11 11 11 10 10 10 8 8 9 10 11 13 16 17 24 25 24 31 27
32 31 31 28 24 18 15 14 14 15 15 15 16 15 14 15 16 16 15 15 16 16 16 15 14 15 15 14 13 12 10 10 10 12 13 14 14 17 22 19 22 26 34
26 29 27 21 15 13 14 14 13 14 14 14 15 16 16 18 18 17 17 18 18 18 18 18 18 18 17 17 15 14 12 11 11 12 12 11 12 13 15 16 20 24 31
24 19 14 12 11 12 13 12 13 15 15 15 16 17 19 20 19 19 20 20 20 21 21 21 21 20 20 17 15 13 13 11 12 11 10 10 13 15 16 17 19 19 11
15 12 12 12 12 12 12 13 15 16 15 17 18 19 21 21 20 21 21 23 23 24 24 24 24 24 22 21 20 17 15 15 12 12 14 13 14 13 15 17 15 15 17
13 13 12 11 13 13 14 15 16 17 18 19 20 21 22 23 22 22 22 24 26 26 26 25 26 26 26 25 24 22 21 20 17 15 15 13 12 12 14 13 18 21 26
14 14 13 14 15 15 17 18 18 18 19 21 22 22 24 26 24 24 24 26 29 30 28 27 27 28 28 25 24 27 25 22 16 10 10 9 11 12 8 15 17 18 7
12 12 12 13 15 17 17 19 19 21 22 21 23 25 26 28 26 25 25 26 30 32 32 32 31 30 29 26 28 30 27 26 20 18 16 15 13 12 11 13 13 13 9
9 9 11 13 15 17 18 19 20 21 22 24 26 27 28 28 28 27 26 26 32 32 34 34 35 31 28 28 29 31 31 25 18 16 15 13 13 11 11 11 11 12 11
5 7 9 11 13 15 17 18 19 21 23 25 26 29 30 30 30 31 31 31 32 32 36 35 36 32 26 28 27 27 20 18 18 18 15 14 13 11 11 11 11 12 13
6 6 7 8 10 13 15 17 19 20 22 25 27 31 34 33 33 32 30 31 31 35 35 35 33 25 23 25 27 24 21 23 19 17 17 16 14 12 10 11 11 13 15
11 11 11 12 12 13 15 17 20 22 25 26 30 30 32 34 36 34 33 31 30 32 33 31 30 27 27 27 29 26 25 24 21 19 17 14 12 10 9 10 12 14 17
14 14 13 14 14 16 16 18 20 23 24 27 31 29 28 27 27 22 22 25 25 26 24 28 29 26 26 28 28 30 28 23 21 19 16 14 11 9 8 8 10 12 12
17 17 18 18 18 18 20 25 21 23 20 22 25 26 29 30 29 28 28 27 26 25 24 26 25 25 25 28 32 31 29 25 22 19 16 14 11 9 8 8 9 10 11
18 19 19 19 20 22 22 22 26 30 25 24 21 21 23 26 27 28 29 30 31 27 30 26 26 27 25 26 28 30 29 27 21 19 17 13 11 9 7 7 8 9 11
19 19 20 21 22 23 24 26 25 24 26 37 33 27 25 24 24 25 26 27 29 28 31 29 26 27 28 29 31 32 28 22 21 19 16 13 11 9 7 7 7 7 8
23 24 24 24 25 26 26 26 27 27 26 26 31 35 35 30 25 24 22 24 26 27 27 29 29 30 30 33 33 31 28 24 21 18 15 12 11 9 8 7 6 4 6
26 25 26 27 28 28 28 27 27 25 24 24 24 26 31 32 27 27 28 27 27 25 27 25 29 33 34 35 33 29 26 22 20 17 14 12 11 9 8 6 6 5 3
29 30 29 29 28 29 29 28 27 26 24 25 26 28 27 28 28 27 27 25 27 27 25 26 27 29 31 31 30 31 27 25 22 18 14 12 11 10 7 6 4 3 3
29 31 31 32 32 32 31 30 27 25 24 25 28 28 27 26 27 28 28 27 26 27 31 32 30 28 30 31 34 33 30 26 22 19 16 14 12 10 9 8 7 4 2
30 31 33 33 32 31 29 28 27 26 26 27 28 28 27 25 25 26 28 29 28 31 30 26 25 23 21 23 24 23 22 21 19 16 15 13 12 10 9 9 8 6 3
32 33 33 33 33 32 29 28 27 25 26 26 26 27 28 28 28 28 29 29 30 31 25 21 18 17 17 19 19 18 16 16 16 15 14 14 13 11 9 9 8 6 4
32 33 31 29 28 26 26 25 26 27 27 27 27 28 29 29 29 29 30 30 30 24 20 15 13 13 15 16 18 17 18 17 16 15 15 14 13 11 10 9 9 7 4
32 32 31 29 27 27 26 26 27 27 27 28 28 28 29 29 29 30 31 31 25 20 14 10 11 13 14 14 15 16 17 15 14 14 14 14 13 12 10 9 7 5 4
Wind_Direction
169 166 158 152 154 155 152 159 179 187 204 215 191 189 190 190 189 189 196 197 194 198 205 205 205 199 205 212 216 222 223 228 236 281 303 318 320 331 332 338 340 338 336
156 154 147 139 147 153 164 174 198 207 206 192 194 197 201 201 201 205 210 211 210 215 219 216 215 214 219 222 227 237 246 257 246 270 302 313 318 327 326 335 337 337 335
142 142 139 149 162 167 183 198 208 204 196 199 204 207 209 212 215 219 223 227 227 229 232 230 231 231 232 233 237 242 256 258 272 272 284 303 314 320 325 333 334 337 332
147 152 155 164 171 186 203 208 205 204 205 207 215 217 221 224 227 231 233 234 235 236 237 240 241 240 242 241 241 246 257 268 279 291 290 300 308 314 325 322 326 330 325
157 159 163 172 187 202 209 206 205 215 216 219 224 227 230 233 236 239 239 240 242 243 245 246 246 246 244 244 244 245 253 262 276 286 288 295 294 316 326 321 319 321 324
166 164 168 193 210 213 210 210 220 224 227 228 232 237 239 244 247 247 244 246 249 252 252 252 251 247 246 246 239 241 254 253 266 265 280 278 290 306 317 316 320 332 331
172 179 204 220 220 216 217 226 232 236 239 241 243 246 251 255 252 249 247 252 253 254 255 256 254 252 250 245 237 239 243 241 257 267 274 276 288 312 313 311 315 312 296
197 218 232 233 230 226 229 237 243 245 249 254 256 256 257 259 258 256 254 257 259 256 255 258 257 257 254 248 244 246 247 251 254 258 265 273 288 303 304 302 306 309 316
230 244 246 238 231 232 241 249 253 254 256 259 263 263 262 267 266 264 258 253 259 264 265 262 260 257 254 248 243 245 249 248 253 243 243 256 273 292 303 300 317 330 321
261 266 251 240 244 251 260 264 265 262 264 267 268 269 270 271 271 267 261 256 262 264 270 268 262 256 255 246 236 241 240 247 249 247 249 261 280 293 291 305 319 329 331
277 267 258 256 262 266 270 270 272 272 272 271 271 273 271 272 275 274 270 258 260 259 259 261 266 262 245 240 238 241 243 254 249 243 247 265 282 289 295 306 315 321 317
292 286 284 280 276 275 275 276 276 275 273 275 277 279 281 283 282 280 273 264 257 253 253 260 267 268 252 243 242 244 235 231 238 236 244 261 272 281 296 304 308 308 306
347 330 312 306 304 297 291 288 285 283 279 282 286 287 287 289 289 286 282 275 264 255 255 259 264 260 253 247 242 239 222 230 230 234 248 259 267 280 296 303 307 310 315
352 346 337 327 318 311 305 301 293 290 289 284 281 277 285 291 293 295 294 290 281 267 262 260 255 252 247 242 235 232 220 221 232 243 251 258 265 277 295 305 314 324 330
349 340 333 324 318 313 309 303 298 292 288 284 286 287 286 287 291 297 293 292 289 283 276 260 250 240 237 225 223 224 220 221 231 237 241 249 258 271 285 300 312 325 332
351 349 346 341 336 332 328 323 314 314 305 290 282 278 282 284 290 289 283 276 275 274 265 253 248 245 230 220 215 217 219 223 229 230 233 240 251 259 276 294 304 315 324
358 354 350 348 344 341 335 330 324 324 318 315 306 297 289 287 287 286 284 282 269 259 250 249 230 230 228 223 217 219 221 228 229 224 226 233 242 255 266 287 297 308 322
4 359 354 351 348 341 340 333 330 320 311 313 316 312 308 303 299 295 292 290 281 265 246 243 236 226 221 221 222 227 229 217 210 212 218 226 240 248 257 271 279 292 315
2 358 353 349 348 344 339 332 326 321 310 302 313 320 324 320 308 299 294 283 280 274 267 245 240 229 222 223 226 231 220 208 209 210 213 224 231 235 244 252 261 273 308
358 357 354 352 347 343 340 336 331 323 314 309 308 309 315 320 314 311 308 302 294 282 278 273 245 235 228 225 226 218 199 197 200 205 210 215 221 227 230 231 231 237 285
356 354 354 351 349 345 343 338 333 326 317 312 308 314 317 313 308 304 301 295 288 286 282 279 277 253 238 228 221 200 195 193 196 201 200 203 205 209 213 213 215 241 293
358 357 355 354 352 350 346 343 335 325 318 314 316 317 320 311 304 302 302 301 297 292 294 289 278 265 250 235 209 194 190 188 189 193 192 190 191 189 188 191 195 206 231
0 358 357 355 353 349 345 343 336 330 324 319 316 315 316 313 309 305 303 304 303 305 306 299 279 266 251 226 204 197 191 190 192 184 179 182 183 185 184 184 186 190 178
3 1 358 355 352 348 342 336 332 326 321 319 320 319 317 315 313 310 307 306 308 311 303 289 266 249 215 191 185 186 187 178 172 170 175 177 175 179 181 185 181 169 164
3 0 356 348 343 338 333 331 327 325 323 321 319 317 316 314 312 311 310 311 315 312 300 276 246 218 198 191 186 182 173 171 170 173 173 171 170 170 172 173 172 170 182
1 358 353 348 342 337 332 328 325 324 321 319 318 316 315 314 313 312 314 319 317 306 288 242 209 195 188 185 179 171 169 170 171 173 173 174 173 173 174 172 177 186 198